Change the Weather History Date:

Monday, November 21, 2011

  Actual Average (KTUL) Record (KTUL)
Temperature  
Mean Temperature 40 °F 48 °F  
Max Temperature 44 °F 58 °F 79 °F (1927)
Min Temperature 37 °F 37 °F 18 °F (1964)
Degree Days  
Heating Degree Days 24 17  
Month to date heating degree days 273  
Since 1 July heating degree days 459  
Moisture  
Dew Point 37 °F    
Average Humidity 86    
Maximum Humidity 93    
Minimum Humidity 73    
Precipitation  
Precipitation 0.87 in 0.08 in 1.76 in (1934)
Month to date precipitation 2.08  
Year to date precipitation 37.75  
Sea Level Pressure  
Sea Level Pressure 30.10 in    
Wind  
Wind Speed 5 mph (NNE)    
Max Wind Speed 13 mph    
Max Gust Speed 22 mph    
Visibility 7 miles    
Events Rain , Thunderstorm    
T = Trace of Precipitation, MM = Missing Value Source: NWS Daily Summary

Daily Weather History Graph

Daily Weather History Graph

Search for Another Location

Airport or City:

Trip Planner

Search our weather history database for the weather conditions in past years. The results will help you decide how hot, cold, wet, or windy it might be!

Date:

Astronomy

Nov. 21, 2011 Rise Set
Actual Time 7:06 AM CST 5:12 PM CST
Civil Twilight 6:38 AM CST 5:40 PM CST
Nautical Twilight 6:07 AM CST 6:11 PM CST
Astronomical Twilight 5:36 AM CST 6:42 PM CST
Moon 2:52 AM CST (11/21) 2:30 PM CST (11/21)
Length of Visible Light 11h 01m
Length of Day
10h 06m
Waning Crescent, 17% of the Moon is Illuminated
Nov 21
Waning Crescent
Nov 25
New
Dec 2
First Quarter
Dec 10
Full
Dec 17
Last Quarter

Hourly Weather History & Observations

Time (CST) Temp. Windchill Dew Point Humidity Pressure Visibility Wind Dir Wind Speed Gust Speed Precip Events Conditions
12:53 AM 39.0 °F 34.8 °F 33.1 °F 79% 30.21 in 10.0 mi North 5.8 mph - N/A   Overcast
1:53 AM 37.9 °F 34.4 °F 33.1 °F 83% 30.22 in 10.0 mi North 4.6 mph - N/A   Overcast
2:53 AM 37.9 °F 32.1 °F 33.1 °F 83% 30.22 in 10.0 mi North 8.1 mph - N/A   Overcast
3:53 AM 37.9 °F 35.5 °F 33.1 °F 83% 30.23 in 10.0 mi North 3.5 mph - N/A   Overcast
4:53 AM 37.9 °F - 33.1 °F 83% 30.23 in 10.0 mi Calm Calm - N/A   Overcast
5:53 AM 37.9 °F 35.5 °F 33.1 °F 83% 30.24 in 10.0 mi North 3.5 mph - N/A   Overcast
6:00 AM 37.4 °F 34.9 °F 33.8 °F 87% 30.22 in 10.0 mi NNE 3.5 mph - N/A   Overcast
6:53 AM 37.9 °F 34.4 °F 33.1 °F 83% 30.25 in 10.0 mi North 4.6 mph - N/A   Overcast
7:53 AM 39.0 °F 34.8 °F 34.0 °F 82% 30.25 in 10.0 mi North 5.8 mph - N/A   Overcast
8:53 AM 39.0 °F 35.7 °F 34.0 °F 82% 30.27 in 10.0 mi NNE 4.6 mph - N/A   Overcast
9:53 AM 39.9 °F 35.1 °F 34.0 °F 79% 30.25 in 10.0 mi NNE 6.9 mph - N/A   Overcast
10:51 AM 41.0 °F 36.4 °F 35.6 °F 81% 30.20 in 10.0 mi North 6.9 mph - N/A   Overcast
10:53 AM 41.0 °F 35.8 °F 35.1 °F 79% 30.22 in 10.0 mi North 8.1 mph - N/A   Overcast
11:53 AM 42.1 °F 40.2 °F 35.1 °F 76% 30.19 in 10.0 mi NNE 3.5 mph - N/A   Overcast
12:53 PM 43.0 °F - 35.1 °F 74% 30.15 in 10.0 mi Calm Calm - N/A   Overcast
2:53 PM 44.1 °F 40.1 °F 36.0 °F 73% 30.10 in 10.0 mi NNE 6.9 mph - N/A   Overcast
3:53 PM 43.0 °F 39.5 °F 36.0 °F 76% 30.09 in 10.0 mi North 5.8 mph - N/A   Overcast
4:26 PM 42.8 °F 38.6 °F 35.6 °F 76% 30.04 in 10.0 mi NNE 6.9 mph - 0.00 in Rain , Thunderstorm Light Rain
4:43 PM 42.8 °F 37.5 °F 37.4 °F 81% 30.03 in 2.5 mi NNE 9.2 mph - 0.06 in Rain , Thunderstorm Heavy Thunderstorms and Rain
4:50 PM 41.0 °F 33.9 °F 37.4 °F 87% 30.00 in 2.0 mi NNE 12.7 mph - 0.09 in Rain Rain
5:00 PM 41.0 °F 36.4 °F 37.4 °F 87% 30.01 in 2.5 mi Variable 6.9 mph 21.9 mph 0.01 in Rain Rain
5:07 PM 41.0 °F 34.7 °F 37.4 °F 87% 30.00 in 4.0 mi ENE 10.4 mph - 0.02 in Rain Light Rain
5:38 PM 41.0 °F 35.8 °F 37.4 °F 87% 30.00 in 7.0 mi NNE 8.1 mph - 0.04 in Rain Light Rain
5:53 PM 41.0 °F 35.2 °F 37.9 °F 89% 30.02 in 7.0 mi NNE 9.2 mph - 0.06 in Rain Light Rain
6:53 PM 41.0 °F 36.4 °F 39.0 °F 93% 30.03 in 5.0 mi NNE 6.9 mph - 0.04 in Rain Rain
7:06 PM 41.0 °F - 39.2 °F 93% 30.00 in 1.8 mi Calm Calm - 0.14 in Rain Heavy Rain
7:16 PM 41.0 °F 39.0 °F 39.2 °F 93% 30.01 in 2.5 mi Variable 3.5 mph - 0.21 in Rain Heavy Rain
7:24 PM 41.0 °F - 39.2 °F 93% 30.05 in 3.0 mi Calm Calm - 0.24 in Rain Rain
7:28 PM 41.0 °F - 39.2 °F 93% 30.07 in 1.8 mi Calm Calm - 0.30 in Rain Heavy Rain
7:39 PM 41.0 °F 36.4 °F 39.2 °F 93% 30.04 in 1.8 mi North 6.9 mph - 0.41 in Rain Heavy Rain
7:48 PM 41.0 °F 39.0 °F 39.2 °F 93% 30.04 in 3.0 mi North 3.5 mph - 0.46 in Rain Heavy Rain
7:53 PM 41.0 °F 36.4 °F 39.0 °F 93% 30.06 in 3.0 mi NNW 6.9 mph - 0.48 in Rain Heavy Rain
8:01 PM 41.0 °F 36.4 °F 39.2 °F 93% 30.02 in 5.0 mi NNE 6.9 mph - 0.01 in Rain Light Rain
8:53 PM 41.0 °F 35.2 °F 39.0 °F 93% 30.02 in 10.0 mi NNW 9.2 mph 19.6 mph 0.07 in Rain Light Rain
9:14 PM 42.8 °F 40.1 °F 39.2 °F 87% 30.02 in 6.0 mi NNW 4.6 mph - 0.04 in Rain Rain
9:53 PM 41.0 °F 39.0 °F 39.0 °F 93% 30.05 in 5.0 mi North 3.5 mph - 0.18 in Rain Rain
10:43 PM 42.8 °F 40.1 °F 39.2 °F 87% 29.98 in 10.0 mi ENE 4.6 mph - 0.04 in   Overcast
10:53 PM 42.1 °F 37.1 °F 39.0 °F 89% 29.99 in 10.0 mi ENE 8.1 mph - 0.04 in   Overcast
11:13 PM 42.8 °F - 39.2 °F 87% 29.97 in 10.0 mi Calm Calm - N/A   Overcast
11:22 PM 42.8 °F 40.1 °F 39.2 °F 87% 29.98 in 10.0 mi NNW 4.6 mph - N/A   Overcast
11:53 PM 43.0 °F - 39.9 °F 89% 29.98 in 10.0 mi Calm Calm - N/A   Overcast